Location: Zürich
(47.3769°N, 8.5417°E)
Time: 12:43:10
(UTC+02:00)

ISS - Visible Passes

Search period start: 29 May 2020 00:00
Search period end: 08 June 2020 00:00
Orbit: 417 x 420 km, 51.6° (Epoch: 29 May)

Date Brightness Start Highest point End Pass type
(mag) Time Alt. Az. Time Alt. Az. Time Alt. Az.
29 May -3.8 22:23:24 10° WNW 22:26:46 78° SSW 22:29:26 15° ESE visible
30 May -1.4 00:01:07 10° W 00:02:21 14° WSW 00:02:21 14° WSW visible
30 May -2.2 23:12:45 10° W 23:15:29 23° SW 23:16:13 21° SSW visible
31 May -2.7 22:24:41 10° WNW 22:27:47 34° SW 22:30:08 15° SSE visible
02 Jun -1.5 22:26:32 10° W 22:28:34 15° SW 22:30:35 10° S visible
